Ord, NE

12:18 PM CDT on April 28, 2017 (GMT -0500)
Sharp

Weather History for KODX - July, 2012

Change the Weather History Date:

Tuesday, July 3, 2012

  Actual Average Record
Temperature  
Mean Temperature 85 °F 73 °F  
Max Temperature 101 °F 86 °F 101 °F (2012)
Min Temperature 68 °F 61 °F 47 °F (2014)
Degree Days  
Heating Degree Days 0 0  
Month to date heating degree days 0 0  
Since 1 June heating degree days 16 37  
Since 1 July heating degree days 0 0  
Cooling Degree Days 20 9  
Month to date cooling degree days 55 25  
Year to date cooling degree days 430 228  
Since 1 June cooling degree days 343 187  
Growing Degree Days 34 (Base 50)    
Moisture  
Dew Point 63 °F    
Average Humidity 58    
Maximum Humidity 90    
Minimum Humidity 26    
Precipitation  
Precipitation 0.00 in 0.10 in 1.73 in (1903)
Month to date precipitation 0.00 0.31  
Year to date precipitation 9.98 13.09  
Sea Level Pressure  
Sea Level Pressure 29.76 in    
Wind  
Wind Speed 9 mph (South)    
Max Wind Speed 22 mph    
Max Gust Speed 26 mph    
Visibility 10 miles    
Events      
T = Trace of Precipitation, MM = Missing Value Source: NWS Daily Summary

Daily Weather History Graph

Daily Weather History Graph

Search for Another Location

Airport or City:

Trip Planner

Search our weather history database for the weather conditions in past years. The results will help you decide how hot, cold, wet, or windy it might be!

Date:

Astronomy

Jul. 03, 2012 Rise Set
Actual Time 6:06 AM CDT 9:13 PM CDT
Civil Twilight 5:32 AM CDT 9:47 PM CDT
Nautical Twilight 4:49 AM CDT 10:30 PM CDT
Astronomical Twilight 3:58 AM CDT 11:21 PM CDT
Moon 9:08 PM CDT (7/3) 6:02 AM CDT (7/3)
Length of Visible Light 16h 14m
Length of Day
15h 06m
Full, 100% of the Moon is Illuminated
Jul 3
Full
Jul 3
Full
Jul 10
Last Quarter
Jul 18
New
Jul 26
First Quarter

Hourly Weather History & Observations

Time (CDT) Temp. Heat Index Dew Point Humidity Pressure Visibility Wind Dir Wind Speed Gust Speed Precip Events Conditions
12:53 AM 73.0 °F - 66.9 °F 81% 29.80 in 10.0 mi Calm Calm - N/A   Clear
1:53 AM 69.1 °F - 66.0 °F 90% 29.81 in 10.0 mi Calm Calm - N/A   Clear
2:53 AM 70.0 °F - 64.9 °F 84% 29.80 in 10.0 mi Calm Calm - N/A   Clear
3:53 AM 73.0 °F - 63.0 °F 71% 29.77 in 10.0 mi SSE 4.6 mph - N/A   Clear
4:53 AM 70.0 °F - 63.0 °F 78% 29.76 in 10.0 mi South 5.8 mph - N/A   Clear
5:53 AM 71.1 °F - 61.0 °F 70% 29.76 in 10.0 mi South 4.6 mph - N/A   Clear
6:53 AM 68.0 °F - 62.1 °F 81% 29.77 in 10.0 mi Calm Calm - N/A   Clear
7:53 AM 73.0 °F - 64.0 °F 73% 29.78 in 10.0 mi Calm Calm - N/A   Clear
8:53 AM 79.0 °F - 63.0 °F 58% 29.80 in 10.0 mi West 3.5 mph - N/A   Clear
9:53 AM 84.0 °F 84.9 °F 63.0 °F 49% 29.80 in 10.0 mi West 4.6 mph - N/A   Clear
10:53 AM 88.0 °F 88.7 °F 63.0 °F 43% 29.79 in 10.0 mi South 5.8 mph - N/A   Clear
11:53 AM 93.0 °F 94.6 °F 64.0 °F 38% 29.79 in 10.0 mi South 9.2 mph - N/A   Clear
12:53 PM 96.1 °F 96.9 °F 62.1 °F 32% 29.78 in 10.0 mi SSW 11.5 mph - N/A   Clear
1:53 PM 100.0 °F 101.2 °F 61.0 °F 28% 29.76 in 10.0 mi SSW 17.3 mph 20.7 mph N/A   Clear
2:53 PM 100.9 °F 101.6 °F 60.1 °F 26% 29.75 in 10.0 mi SSW 16.1 mph 21.9 mph N/A   Clear
3:53 PM 100.0 °F 100.2 °F 59.0 °F 26% 29.74 in 10.0 mi South 15.0 mph 24.2 mph N/A   Clear
4:53 PM 99.0 °F 100.5 °F 62.1 °F 30% 29.73 in 10.0 mi South 17.3 mph 24.2 mph N/A   Clear
5:53 PM 98.1 °F 99.1 °F 62.1 °F 30% 29.72 in 10.0 mi South 17.3 mph 21.9 mph N/A   Clear
6:53 PM 96.1 °F 95.2 °F 57.9 °F 28% 29.72 in 10.0 mi South 17.3 mph 21.9 mph N/A   Clear
7:53 PM 93.0 °F 93.8 °F 62.1 °F 36% 29.71 in 10.0 mi SSE 12.7 mph 20.7 mph N/A   Clear
8:53 PM 89.1 °F 89.0 °F 61.0 °F 39% 29.72 in 10.0 mi SSE 9.2 mph - N/A   Clear
9:53 PM 84.9 °F 86.1 °F 64.0 °F 49% 29.72 in 10.0 mi SSE 12.7 mph - N/A   Clear
10:53 PM 82.9 °F 85.4 °F 66.9 °F 58% 29.73 in 10.0 mi SSE 11.5 mph - N/A   Clear
11:53 PM 80.1 °F 82.3 °F 66.9 °F 64% 29.72 in 10.0 mi South 4.6 mph - N/A   Clear